Location: Jackson Park
(37.2862°N, 79.9123°W)
Time: 11:29:40
(UTC+00:00)

Vanguard 3 - Pass Details

Date: 12 May 2026
Orbit: 507 x 3204 km, 33.3° (Epoch: 11 June)

Event Time Altitude Azimuth Distance (km) Brightness Sun altitude
Rises 18:16:47 0° 224° (SW) 6,501 12.1 66.8°
Reaches altitude 10° 18:20:59 10° 219° (SW) 5,727 12.0 66.3°
Maximum altitude 18:38:37 51° 150° (SSE) 3,746 11.4 63.8°
Drops below altitude 10° 18:55:25 10° 82° (E) 5,507 11.2 61.1°
Sets 18:59:19 0° 78° (ENE) 6,250 11.4 60.5°
